Regional Weather Roundup
Issued by NWS Little Rock, AR

Home | Current Version | Previous Version | Text Only | Print | Product List | Glossary On
Versions: 1 2 3 4 5 6 7 8 9 10 11 12 13 14 15 16 17 18 19 20 21 22 23 24 25 26 27 28 29 30 31 32
000
ASUS44 KLZK 270705
RWRLZK

WEATHER ROUNDUP FOR ARKANSAS
NATIONAL WEATHER SERVICE LITTLE ROCK AR
100 AM CST MON FEB 27 2017

NOTE: "FAIR" INDICATES FEW OR NO CLOUDS BELOW 12,000 FEET WITH NO
SIGNIFICANT WEATHER AND/OR OBSTRUCTIONS TO VISIBILITY.

ARZ001-003-010-029-270800-
NORTHWEST ARKANSAS

CITY           SKY/WX    TMP DP  RH WIND       PRES   REMARKS
FAYETTEVILLE   CLEAR     33  31  92 S3        30.01R
FORT SMITH     PTCLDY    47  34  60 E5        30.00F
HARRISON       CLEAR     42  29  59 CALM      30.02S
BENTONVILLE    CLEAR     41  30  65 SE6       30.01S
ROGERS         CLEAR     41  31  67 E8        30.01S
SILOAM SPGS    CLEAR     39  28  65 E6        29.99F
HIGHFILL       PTCLDY    38  29  70 CALM      30.00R
$$

ARZ004-005-016-270800-
NORTH CENTRAL ARKANSAS

CITY           SKY/WX    TMP DP  RH WIND       PRES   REMARKS
BATESVILLE     CLOUDY    45  41  87 CALM      30.06R
FLIPPIN        MOCLDY    45  27  49 NE3       30.02S
MTN HOME       MOCLDY    43  29  57 E3        30.03S
$$

ARZ040-041-270800-
WEST CENTRAL ARKANSAS

CITY           SKY/WX    TMP DP  RH WIND       PRES   REMARKS
MENA           CLOUDY    50  45  81 CALM      30.01R
MOUNT IDA      CLOUDY    46  45  96 CALM      29.99R
$$

ARZ009-017-025-026-028-270800-
NORTHEAST ARKANSAS

CITY           SKY/WX    TMP DP  RH WIND       PRES   REMARKS
CORNING        CLOUDY    46  45  93 SE9       30.08S
JONESBORO      LGT RAIN  48  44  86 CALM      30.10R
NEWPORT        LGT RAIN  47  44  90 MISG      30.03F
WALNUT RIDGE   CLOUDY    46  39  76 SE14      30.04F
BLYTHEVILLE    LGT RAIN  48  44  86 E7        30.13F
$$

ARZ022-023-033-042-044-270800-
CENTRAL ARKANSAS

CITY           SKY/WX    TMP DP  RH WIND       PRES   REMARKS
LITTLE ROCK    CLOUDY    47  47 100 SE14      30.01F
N LITTLE ROCK    N/A     46  44  94 E7        30.05F
JACKSONVILLE   PTCLDY    47  46  99 CALM      30.02F
SEARCY         LGT RAIN  47  45  93 E7        30.06F
HOT SPRINGS    CLOUDY    48  47  96 E5        30.01R
RUSSELLVILLE   CLOUDY    49  38  65 CALM      30.03R
CLINTON        CLOUDY    46  41  81 CALM      30.05R
$$

ARZ036-270800-
EAST ARKANSAS

CITY           SKY/WX    TMP DP  RH WIND       PRES   REMARKS
WEST MEMPHIS   LGT RAIN  48  46  93 N7        30.13R
$$

ARZ050-053-066-070-073-270800-
SOUTHWEST ARKANSAS

CITY           SKY/WX    TMP DP  RH WIND       PRES   REMARKS
ARKADELPHIA    RAIN      49  48  97 SE5       30.02F
CAMDEN         RAIN      48  46  93 N8        30.06R
TEXARKANA      LGT RAIN  50  50 100 SE9       29.98S
EL DORADO      HVY RAIN  50  50 100 N5        30.01R FOG
DE QUEEN       CLOUDY    49  49 100 NE5       29.97R
$$

ARZ056-057-069-270800-
SOUTHEAST ARKANSAS

CITY           SKY/WX    TMP DP  RH WIND       PRES   REMARKS
PINE BLUFF     HVY RAIN  48  47  96 NE10      30.07S
STUTTGART      CLOUDY    48  39  71 SE17      30.05F
MONTICELLO     RAIN      51  48  89 VRB3      30.03S FOG

$$






USA.gov is the U.S. government's official web portal to all federal, state and local government web resources and services.